Date String (YYYY-MM-DD hh:mm:ss) UTC,Instrument flags,absolute air pressure of the measurement (hPa),sample flow rate (lpm),inlet stack bypass flow (lpm),air temperature of the measurement (°C),ambient temperature measured by the external sensor (°C),aerosol sample conditioner tube jacket temperature (°C),OPC LED temperature (°C),internal box temperature (°C),relative humidity of the measurement (%),span deviation,mass concentration of particles derived from Lorenz-Mie calculation of OPC scattering (μg/m³),mass concentration of particles derived from Lorenz-Mie calculation of OPC scattering (μg/m³),mass concentration of particles derived from Lorenz-Mie calculation of OPC scattering (μg/m³)
DateTimeUTC,F1_M11,P_M11,Q1_M11,Q2_M11,T1_M11,T2_M11,T3_M11,T4_M11,T5_M11,U1_M11,ZSPAN_M11,X2_M11,X0_M11,X1_M11
2023-07-10 22:00:00,SystemResetWarning,0829.8,5.02,000.00,028.6,025.2,000.0,036.7,030.0,25.5,0000.0,0004.85,0013.96,0003.95
2023-07-10 22:01:00,SystemResetWarning,0829.8,5.00,000.00,028.5,025.6,000.0,036.8,030.1,26.7,0000.0,0004.86,0013.87,0003.96
2023-07-10 22:02:00,SystemResetWarning,0829.9,5.00,000.00,028.5,026.1,000.0,036.8,030.2,25.3,0000.0,0004.85,0013.17,0003.97
2023-07-10 22:03:00,SystemResetWarning,0829.9,5.00,000.00,028.6,026.5,000.0,036.8,030.2,26.0,0000.0,0004.87,0013.39,0003.99
2023-07-10 22:04:00,SystemResetWarning,0829.9,5.01,000.00,028.6,027.0,000.0,036.9,030.4,26.6,0000.0,0004.87,0013.67,0003.99
2023-07-10 22:05:00,SystemResetWarning,0829.9,4.99,000.00,028.7,027.3,000.0,036.9,030.5,26.6,0000.0,0004.87,0013.01,0003.99
2023-07-10 22:06:00,SystemResetWarning,0830.0,5.00,000.00,028.7,027.0,000.0,036.9,030.5,26.7,0000.0,0004.93,0013.00,0004.00
2023-07-10 22:07:00,SystemResetWarning,0829.9,5.00,000.00,028.7,025.6,000.0,036.8,030.2,24.8,0000.0,0004.90,0011.92,0004.01
2023-07-10 22:08:00,SystemResetWarning,0829.9,5.02,000.00,028.6,025.1,000.0,036.8,030.1,24.7,0000.0,0004.90,0011.66,0004.01
2023-07-10 22:09:00,SystemResetWarning,0829.9,5.00,000.00,028.6,025.4,000.0,036.8,030.0,25.8,0000.0,0004.90,0012.23,0004.01
2023-07-10 22:10:00,SystemResetWarning,0829.9,5.00,000.00,028.6,025.7,000.0,036.8,030.0,25.3,0000.0,0004.85,0012.52,0004.00
2023-07-10 22:11:00,SystemResetWarning,0829.9,5.01,000.00,028.6,026.2,000.0,036.8,030.2,25.1,0000.0,0004.77,0013.04,0003.98
2023-07-10 22:12:00,SystemResetWarning,0829.9,5.01,000.00,028.6,026.6,000.0,036.9,030.3,25.4,0000.0,0004.75,0013.51,0003.96
2023-07-10 22:13:00,SystemResetWarning,0829.9,5.00,000.00,028.7,027.0,000.0,036.9,030.4,25.3,0000.0,0004.75,0013.68,0003.95
2023-07-10 22:14:00,SystemResetWarning,0829.9,5.00,000.00,028.7,027.3,000.0,036.9,030.5,25.9,0000.0,0004.72,0013.91,0003.93
2023-07-10 22:15:00,SystemResetWarning,0829.9,4.98,000.00,028.7,026.2,000.0,036.8,030.3,26.4,0000.0,0004.67,0013.96,0003.91
2023-07-10 22:16:00,SystemResetWarning,0829.8,5.01,000.00,028.6,024.9,000.0,036.8,030.1,25.0,0000.0,0004.68,0014.48,0003.90
2023-07-10 22:17:00,SystemResetWarning,0829.8,5.02,000.00,028.6,024.9,000.0,036.7,030.0,26.3,0000.0,0004.62,0014.32,0003.88
2023-07-10 22:18:00,SystemResetWarning,0829.8,5.00,000.00,028.5,025.3,000.0,036.8,029.9,27.6,0000.0,0004.60,0014.62,0003.87
2023-07-10 22:19:00,SystemResetWarning,0829.8,5.01,000.00,028.5,025.7,000.0,036.8,030.0,24.2,0000.0,0004.61,0014.43,0003.86
2023-07-10 22:20:00,SystemResetWarning,0829.8,5.00,000.00,028.5,026.2,000.0,036.8,030.1,22.9,0000.0,0004.58,0014.12,0003.86
2023-07-10 22:21:00,SystemResetWarning,0829.8,5.00,000.00,028.6,026.6,000.0,036.9,030.2,23.8,0000.0,0004.56,0013.64,0003.86
2023-07-10 22:22:00,SystemResetWarning,0829.8,5.01,000.00,028.6,027.0,000.0,036.9,030.3,25.0,0000.0,0004.56,0013.51,0003.85
2023-07-10 22:23:00,SystemResetWarning,0829.8,5.00,000.00,028.7,027.3,000.0,036.9,030.5,24.7,0000.0,0004.53,0012.92,0003.83
2023-07-10 22:24:00,SystemResetWarning,0829.8,4.98,000.00,028.7,026.3,000.0,036.8,030.3,26.0,0000.0,0004.51,0012.48,0003.83
2023-07-10 22:25:00,SystemResetWarning,0829.8,5.01,000.00,028.6,025.0,000.0,036.8,030.0,24.1,0000.0,0004.52,0012.13,0003.82
2023-07-10 22:26:00,SystemResetWarning,0829.8,5.01,000.00,028.6,024.9,000.0,036.7,029.9,22.9,0000.0,0004.48,0011.04,0003.81
2023-07-10 22:27:00,SystemResetWarning,0829.8,5.00,000.00,028.5,025.2,000.0,036.8,029.9,23.5,0000.0,0004.43,0010.24,0003.79
2023-07-10 22:28:00,SystemResetWarning,0829.8,5.00,000.00,028.5,025.7,000.0,036.8,030.0,23.7,0000.0,0004.45,0010.39,0003.78
2023-07-10 22:29:00,SystemResetWarning,0829.8,5.00,000.00,028.5,026.1,000.0,036.8,030.1,24.2,0000.0,0004.46,0010.61,0003.78
2023-07-10 22:30:00,SystemResetWarning,0829.8,5.00,000.00,028.5,026.6,000.0,036.8,030.2,24.2,0000.0,0004.45,0010.29,0003.76
2023-07-10 22:31:00,SystemResetWarning,0829.8,5.01,000.00,028.6,027.0,000.0,036.9,030.3,22.6,0000.0,0004.41,0009.65,0003.74
2023-07-10 22:32:00,SystemResetWarning,0829.8,4.99,000.00,028.6,027.3,000.0,036.9,030.4,25.1,0000.0,0004.40,0009.77,0003.72
2023-07-10 22:33:00,SystemResetWarning,0829.8,4.99,000.00,028.7,026.3,000.0,036.8,030.3,26.5,0000.0,0004.40,0009.42,0003.72
2023-07-10 22:34:00,SystemResetWarning,0829.7,5.00,000.00,028.6,025.0,000.0,036.7,030.1,27.0,0000.0,0004.39,0009.29,0003.71
2023-07-10 22:35:00,SystemResetWarning,0829.7,5.01,000.00,028.5,024.8,000.0,036.7,030.0,27.1,0000.0,0004.39,0009.88,0003.70
2023-07-10 22:36:00,SystemResetWarning,0829.7,5.01,000.00,028.5,025.2,000.0,036.7,029.9,27.1,0000.0,0004.39,0011.41,0003.69
2023-07-10 22:37:00,SystemResetWarning,0829.7,5.00,000.00,028.5,025.6,000.0,036.8,030.0,24.7,0000.0,0004.40,0011.55,0003.69
2023-07-10 22:38:00,SystemResetWarning,0829.7,4.99,000.00,028.5,026.1,000.0,036.8,030.1,25.2,0000.0,0004.41,0011.64,0003.69
2023-07-10 22:39:00,SystemResetWarning,0829.7,5.00,000.00,028.5,026.5,000.0,036.8,030.2,24.4,0000.0,0004.39,0011.63,0003.69
2023-07-10 22:40:00,SystemResetWarning,0829.7,5.00,000.00,028.6,026.9,000.0,036.8,030.3,25.3,0000.0,0004.37,0011.08,0003.69
2023-07-10 22:41:00,SystemResetWarning,0829.7,5.00,000.00,028.6,027.2,000.0,036.9,030.4,26.9,0000.0,0004.33,0010.72,0003.69
2023-07-10 22:42:00,SystemResetWarning,0829.7,4.98,000.00,028.7,026.4,000.0,036.8,030.3,23.8,0000.0,0004.38,0010.76,0003.70
2023-07-10 22:43:00,SystemResetWarning,0829.7,4.99,000.00,028.6,024.9,000.0,036.7,030.0,26.0,0000.0,0004.45,0011.87,0003.72
2023-07-10 22:44:00,SystemResetWarning,0829.7,5.02,000.00,028.5,024.7,000.0,036.7,030.0,23.3,0000.0,0004.48,0012.51,0003.73
2023-07-10 22:45:00,SystemResetWarning,0829.7,4.99,000.00,028.5,025.1,000.0,036.7,029.9,24.0,0000.0,0004.49,0012.92,0003.74
2023-07-10 22:46:00,SystemResetWarning,0829.7,5.00,000.00,028.5,025.5,000.0,036.7,029.9,24.3,0000.0,0004.49,0013.02,0003.75
2023-07-10 22:47:00,SystemResetWarning,0829.7,5.01,000.00,028.5,026.0,000.0,036.8,030.1,23.1,0000.0,0004.46,0011.45,0003.76
2023-07-10 22:48:00,SystemResetWarning,0829.7,4.99,000.00,028.5,026.4,000.0,036.8,030.2,22.8,0000.0,0004.49,0011.61,0003.78
2023-07-10 22:49:00,SystemResetWarning,0829.7,5.00,000.00,028.6,026.8,000.0,036.8,030.3,23.6,0000.0,0004.52,0012.84,0003.79
2023-07-10 22:50:00,SystemResetWarning,0829.7,5.00,000.00,028.6,027.2,000.0,036.9,030.4,24.3,0000.0,0004.54,0013.18,0003.79
2023-07-10 22:51:00,SystemResetWarning,0829.7,5.01,000.00,028.7,027.5,000.0,036.9,030.5,24.9,0000.0,0004.53,0013.19,0003.79
2023-07-10 22:52:00,SystemResetWarning,0829.7,5.00,000.00,028.7,026.8,000.0,036.9,030.4,25.5,0000.0,0004.58,0014.55,0003.80
2023-07-10 22:53:00,SystemResetWarning,0829.7,4.99,000.00,028.7,025.3,000.0,036.8,030.2,24.6,0000.0,0004.58,0014.55,0003.80
2023-07-10 22:54:00,SystemResetWarning,0829.7,5.02,000.00,028.6,024.9,000.0,036.7,030.1,22.7,0000.0,0004.51,0013.68,0003.80
2023-07-10 22:55:00,SystemResetWarning,0829.7,4.99,000.00,028.6,025.3,000.0,036.8,030.0,23.5,0000.0,0004.48,0012.85,0003.80
2023-07-10 22:56:00,SystemResetWarning,0829.7,5.00,000.00,028.5,025.7,000.0,036.8,030.0,24.9,0000.0,0004.51,0012.33,0003.81
2023-07-10 22:57:00,SystemResetWarning,0829.8,5.00,000.00,028.5,026.1,000.0,036.8,030.1,24.3,0000.0,0004.51,0012.15,0003.83
2023-07-10 22:58:00,SystemResetWarning,0829.8,5.01,000.00,028.6,026.5,000.0,036.9,030.2,25.1,0000.0,0004.54,0012.50,0003.85
2023-07-10 22:59:00,SystemResetWarning,0829.8,5.01,000.00,028.6,026.9,000.0,036.9,030.4,27.3,0000.0,0004.56,0012.56,0003.85
